| time (UTC) | temp F | wind direction | speed MPH | gust MPH | rain 1hr in | rain 24hr in | rain mn in | humidity % | barometer mb |
| 20260905104209 | 63 | 68 | 5.0 | 7.0 | 0.00 | 0.00 | 0.00 | 98 | 1016.5 |
| 20260905103704 | 63 | 58 | 5.0 | 7.0 | 0.00 | 0.00 | 0.00 | 98 | 1016.5 |
| 20260905103158 | 63 | 44 | 5.0 | 8.0 | 0.00 | 0.00 | 0.00 | 98 | 1016.4 |
| 20260905102652 | 63 | 58 | 5.0 | 8.0 | 0.00 | 0.00 | 0.00 | 98 | 1016.3 |
| 20260905102146 | 62 | 40 | 4.0 | 7.0 | 0.00 | 0.00 | 0.00 | 98 | 1016.2 |
| 20260905101640 | 62 | 55 | 5.0 | 9.0 | 0.00 | 0.00 | 0.00 | 98 | 1016.3 |
| 20260905101134 | 62 | 68 | 5.0 | 9.0 | 0.00 | 0.00 | 0.00 | 98 | 1016.2 |
| 20260905100627 | 62 | 63 | 5.0 | 8.0 | 0.00 | 0.00 | 0.00 | 98 | 1016.0 |
| 20260905100122 | 62 | 49 | 6.0 | 8.0 | 0.00 | 0.00 | 0.00 | 98 | 1016.1 |
| 20260905095846 | 62 | 58 | 5.0 | 8.0 | 0.00 | 0.00 | 0.00 | 98 | 1016.2 |
| 20260905095110 | 62 | 70 | 5.0 | 8.0 | 0.00 | 0.00 | 0.00 | 98 | 1016.3 |
| 20260905094604 | 62 | 69 | 5.0 | 8.0 | 0.00 | 0.00 | 0.00 | 98 | 1016.3 |
| 20260905094058 | 62 | 42 | 5.0 | 8.0 | 0.00 | 0.00 | 0.00 | 98 | 1016.3 |
| 20260905093552 | 62 | 49 | 6.0 | 8.0 | 0.00 | 0.00 | 0.00 | 98 | 1016.3 |
| 20260905093314 | 62 | 40 | 5.0 | 9.0 | 0.00 | 0.00 | 0.00 | 98 | 1016.6 |
| 20260905093150 | 62 | 44 | 5.0 | 9.0 | 0.00 | 0.00 | 0.00 | 98 | 1016.4 |
| 20260905092034 | 62 | 60 | 5.0 | 8.0 | 0.00 | 0.00 | 0.00 | 98 | 1016.7 |
| 20260905091528 | 62 | 58 | 5.0 | 10.0 | 0.00 | 0.00 | 0.00 | 98 | 1016.8 |
| 20260905091021 | 62 | 77 | 6.0 | 10.0 | 0.00 | 0.00 | 0.00 | 97 | 1016.9 |
| 20260905090515 | 62 | 60 | 6.0 | 10.0 | 0.00 | 0.00 | 0.00 | 98 | 1017.0 |
| 20260905090010 | 62 | 38 | 6.0 | 10.0 | 0.00 | 0.00 | 0.00 | 97 | 1017.0 |
| 20260905085504 | 62 | 65 | 6.0 | 10.0 | 0.00 | 0.00 | 0.00 | 97 | 1017.1 |
| 20260905084957 | 62 | 49 | 5.0 | 10.0 | 0.00 | 0.00 | 0.00 | 97 | 1017.2 |
| 20260905084451 | 62 | 64 | 5.0 | 9.0 | 0.00 | 0.00 | 0.00 | 97 | 1017.2 |
| 20260905083945 | 62 | 67 | 6.0 | 9.0 | 0.00 | 0.00 | 0.00 | 97 | 1017.2 |
| 20260905083439 | 62 | 105 | 5.0 | 8.0 | 0.00 | 0.00 | 0.00 | 97 | 1017.2 |
| 20260905082934 | 62 | 79 | 4.0 | 8.0 | 0.00 | 0.00 | 0.00 | 97 | 1017.2 |
| 20260905082427 | 62 | 68 | 4.0 | 7.0 | 0.00 | 0.00 | 0.00 | 97 | 1017.2 |
| 20260905081922 | 62 | 62 | 4.0 | 6.0 | 0.00 | 0.00 | 0.00 | 97 | 1017.3 |
| 20260905081416 | 62 | 64 | 4.0 | 7.0 | 0.00 | 0.00 | 0.00 | 97 | 1017.3 |
| 20260905080910 | 62 | 81 | 5.0 | 7.0 | 0.00 | 0.00 | 0.00 | 97 | 1017.3 |
| 20260905080404 | 62 | 102 | 5.0 | 7.0 | 0.00 | 0.00 | 0.00 | 97 | 1017.2 |
| 20260905075858 | 62 | 75 | 4.0 | 7.0 | 0.00 | 0.00 | 0.00 | 97 | 1017.1 |
| 20260905075352 | 62 | 54 | 4.0 | 7.0 | 0.00 | 0.00 | 0.00 | 97 | 1017.0 |
| 20260905074846 | 62 | 57 | 5.0 | 9.0 | 0.00 | 0.00 | 0.00 | 97 | 1017.0 |
| 20260905074610 | 62 | 91 | 6.0 | 9.0 | 0.00 | 0.00 | 0.00 | 97 | 1017.0 |
| 20260905073834 | 62 | 68 | 5.0 | 8.0 | 0.00 | 0.00 | 0.00 | 97 | 1016.9 |
| 20260905073328 | 62 | 64 | 6.0 | 9.0 | 0.00 | 0.00 | 0.00 | 97 | 1016.9 |
| 20260905072548 | 62 | 34 | 6.0 | 10.0 | 0.00 | 0.00 | 0.00 | 97 | 1016.8 |
| 20260905072042 | 63 | 65 | 5.0 | 9.0 | 0.00 | 0.00 | 0.00 | 97 | 1016.8 |
| 20260905071304 | 63 | 56 | 4.0 | 8.0 | 0.00 | 0.00 | 0.00 | 97 | 1016.9 |
| 20260905070758 | 63 | 82 | 4.0 | 6.0 | 0.00 | 0.00 | 0.00 | 97 | 1016.9 |
| 20260905070252 | 63 | 98 | 4.0 | 6.0 | 0.00 | 0.00 | 0.00 | 97 | 1016.8 |
| 20260905065746 | 63 | 74 | 3.0 | 6.0 | 0.00 | 0.00 | 0.00 | 97 | 1016.7 |
| 20260905065240 | 63 | 103 | 4.0 | 9.0 | 0.00 | 0.00 | 0.00 | 97 | 1016.8 |
| 20260905064734 | 63 | 73 | 5.0 | 9.0 | 0.00 | 0.00 | 0.00 | 97 | 1016.7 |
| 20260905064228 | 63 | 80 | 5.0 | 9.0 | 0.00 | 0.00 | 0.00 | 97 | 1016.6 |
| 20260905063728 | 63 | 72 | 6.0 | 11.0 | 0.00 | 0.00 | 0.00 | 97 | 1016.7 |
| 20260905063225 | 63 | 63 | 6.0 | 11.0 | 0.00 | 0.00 | 0.00 | 97 | 1016.7 |
| 20260905062723 | 63 | 50 | 6.0 | 10.0 | 0.00 | 0.00 | 0.00 | 97 | 1016.7 |
| 20260905062454 | 63 | 69 | 6.0 | 8.0 | 0.00 | 0.00 | 0.00 | 97 | 1016.8 |
| 20260905061956 | 63 | 72 | 5.0 | 8.0 | 0.00 | 0.00 | 0.00 | 97 | 1016.7 |
| 20260905061222 | 63 | 71 | 5.0 | 10.0 | 0.00 | 0.00 | 0.00 | 97 | 1016.7 |
| 20260905060721 | 63 | 57 | 6.0 | 10.0 | 0.00 | 0.00 | 0.00 | 97 | 1016.7 |
| 20260905060226 | 63 | 54 | 6.0 | 10.0 | 0.00 | 0.00 | 0.00 | 97 | 1016.6 |
| 20260905060221 | 63 | 68 | 7.0 | 10.0 | 0.00 | 0.00 | 0.00 | 97 | 1016.7 |
| 20260905055221 | 63 | 54 | 6.0 | 10.0 | 0.00 | 0.00 | 0.00 | 97 | 1016.7 |
| 20260905054720 | 63 | 41 | 5.0 | 9.0 | 0.00 | 0.00 | 0.00 | 97 | 1016.8 |
| 20260905054451 | 63 | 53 | 5.0 | 7.0 | 0.00 | 0.00 | 0.00 | 96 | 1016.9 |
| 20260905053720 | 63 | 53 | 5.0 | 8.0 | 0.00 | 0.00 | 0.00 | 96 | 1016.9 |
| 20260905053221 | 63 | 46 | 5.0 | 8.0 | 0.00 | 0.00 | 0.00 | 96 | 1017.0 |
| 20260905052722 | 63 | 46 | 4.0 | 7.0 | 0.00 | 0.00 | 0.00 | 97 | 1017.0 |
| 20260905052216 | 63 | 54 | 4.0 | 7.0 | 0.00 | 0.00 | 0.00 | 96 | 1017.0 |
| 20260905051716 | 63 | 41 | 5.0 | 8.0 | 0.00 | 0.00 | 0.00 | 96 | 1017.0 |
| 20260905051217 | 63 | 57 | 5.0 | 10.0 | 0.00 | 0.00 | 0.00 | 96 | 1017.0 |
| 20260905050717 | 63 | 73 | 5.0 | 10.0 | 0.00 | 0.00 | 0.00 | 96 | 1016.9 |
| 20260905050217 | 63 | 61 | 5.0 | 9.0 | 0.00 | 0.00 | 0.00 | 96 | 1017.0 |
| 20260905045947 | 63 | 63 | 5.0 | 9.0 | 0.00 | 0.00 | 0.00 | 96 | 1016.9 |
| 20260905045216 | 63 | 39 | 5.0 | 8.0 | 0.00 | 0.00 | 0.00 | 96 | 1016.9 |
| 20260905044948 | 63 | 52 | 6.0 | 9.0 | 0.00 | 0.00 | 0.00 | 96 | 1016.9 |
| 20260905044218 | 63 | 67 | 6.0 | 9.0 | 0.00 | 0.00 | 0.00 | 96 | 1016.9 |
| 20260905043712 | 63 | 55 | 5.0 | 9.0 | 0.00 | 0.00 | 0.00 | 96 | 1016.9 |
| 20260905043212 | 63 | 48 | 5.0 | 9.0 | 0.00 | 0.00 | 0.00 | 96 | 1016.8 |
| 20260905042712 | 63 | 77 | 5.0 | 8.0 | 0.00 | 0.00 | 0.00 | 96 | 1016.9 |
| 20260905042212 | 63 | 79 | 6.0 | 9.0 | 0.00 | 0.00 | 0.00 | 96 | 1016.9 |
| 20260905041714 | 63 | 81 | 6.0 | 10.0 | 0.00 | 0.00 | 0.00 | 96 | 1016.8 |
| 20260905041214 | 63 | 63 | 5.0 | 10.0 | 0.00 | 0.00 | 0.00 | 96 | 1016.8 |
| 20260905040713 | 63 | 53 | 5.0 | 10.0 | 0.00 | 0.00 | 0.00 | 96 | 1016.9 |
| 20260905040212 | 63 | 62 | 6.0 | 10.0 | 0.00 | 0.00 | 0.00 | 96 | 1016.9 |
| 20260905035713 | 63 | 71 | 6.0 | 11.0 | 0.00 | 0.00 | 0.00 | 96 | 1017.0 |
| 20260905035214 | 63 | 54 | 7.0 | 11.0 | 0.00 | 0.00 | 0.00 | 96 | 1016.8 |
| 20260905034714 | 63 | 50 | 7.0 | 12.0 | 0.00 | 0.00 | 0.00 | 96 | 1016.8 |
| 20260905034212 | 63 | 63 | 7.0 | 14.0 | 0.00 | 0.00 | 0.00 | 95 | 1016.8 |
| 20260905033713 | 63 | 49 | 7.0 | 14.0 | 0.00 | 0.00 | 0.00 | 95 | 1016.7 |
| 20260905033213 | 64 | 46 | 7.0 | 12.0 | 0.00 | 0.00 | 0.00 | 95 | 1016.8 |
| 20260905032712 | 64 | 46 | 7.0 | 12.0 | 0.00 | 0.00 | 0.00 | 95 | 1016.8 |
| 20260905032213 | 64 | 68 | 7.0 | 12.0 | 0.00 | 0.00 | 0.00 | 95 | 1016.7 |
| 20260905031944 | 64 | 89 | 5.0 | 12.0 | 0.00 | 0.00 | 0.00 | 94 | 1016.6 |
| 20260905031213 | 64 | 68 | 5.0 | 8.0 | 0.00 | 0.00 | 0.00 | 95 | 1016.6 |
| 20260905030712 | 64 | 86 | 6.0 | 10.0 | 0.00 | 0.00 | 0.00 | 94 | 1016.7 |
| 20260905030212 | 64 | 44 | 6.0 | 10.0 | 0.00 | 0.00 | 0.00 | 94 | 1016.7 |
| 20260905025943 | 65 | 59 | 6.0 | 10.0 | 0.00 | 0.00 | 0.00 | 94 | 1016.8 |
| 20260905025213 | 65 | 57 | 7.0 | 11.0 | 0.00 | 0.00 | 0.00 | 94 | 1016.7 |
| 20260905024712 | 65 | 80 | 6.0 | 11.0 | 0.00 | 0.00 | 0.00 | 93 | 1016.7 |
| 20260905024214 | 65 | 60 | 6.0 | 9.0 | 0.00 | 0.00 | 0.00 | 94 | 1016.6 |
| 20260905023945 | 65 | 69 | 6.0 | 10.0 | 0.00 | 0.00 | 0.00 | 94 | 1016.5 |
| 20260905023213 | 65 | 79 | 6.0 | 10.0 | 0.00 | 0.00 | 0.00 | 94 | 1016.5 |
| 20260905022714 | 65 | 82 | 6.0 | 9.0 | 0.00 | 0.00 | 0.00 | 93 | 1016.4 |
| 20260905022209 | 65 | 58 | 6.0 | 12.0 | 0.00 | 0.00 | 0.00 | 93 | 1016.4 |
| 20260905021702 | 65 | 56 | 7.0 | 12.0 | 0.00 | 0.00 | 0.00 | 93 | 1016.4 |
| 20260905021156 | 65 | 74 | 8.0 | 13.0 | 0.00 | 0.00 | 0.00 | 94 | 1016.2 |
| 20260905020650 | 65 | 46 | 8.0 | 13.0 | 0.00 | 0.00 | 0.00 | 94 | 1016.3 |
| 20260905020145 | 65 | 53 | 8.0 | 12.0 | 0.00 | 0.00 | 0.00 | 94 | 1016.1 |
| 20260905015646 | 65 | 70 | 7.0 | 10.0 | 0.00 | 0.00 | 0.00 | 94 | 1016.1 |
| 20260905015145 | 65 | 58 | 7.0 | 10.0 | 0.00 | 0.00 | 0.00 | 94 | 1016.1 |
| 20260905014918 | 65 | 49 | 7.0 | 10.0 | 0.00 | 0.00 | 0.00 | 93 | 1016.1 |
| 20260905014416 | 65 | 63 | 7.0 | 10.0 | 0.00 | 0.00 | 0.00 | 93 | 1016.0 |
| 20260905013642 | 66 | 53 | 7.0 | 10.0 | 0.00 | 0.00 | 0.00 | 93 | 1016.1 |
| 20260905013143 | 66 | 34 | 7.0 | 10.0 | 0.00 | 0.00 | 0.00 | 93 | 1016.1 |
| 20260905012642 | 66 | 26 | 7.0 | 11.0 | 0.00 | 0.00 | 0.00 | 93 | 1016.1 |
| 20260905012141 | 66 | 55 | 7.0 | 11.0 | 0.00 | 0.00 | 0.00 | 92 | 1016.0 |
| 20260905011640 | 66 | 44 | 8.0 | 12.0 | 0.00 | 0.00 | 0.00 | 93 | 1015.8 |
| 20260905011140 | 66 | 13 | 7.0 | 12.0 | 0.00 | 0.00 | 0.00 | 92 | 1015.7 |
| 20260905010640 | 67 | 21 | 6.0 | 10.0 | 0.00 | 0.00 | 0.00 | 93 | 1015.6 |
| 20260905010138 | 67 | 58 | 7.0 | 10.0 | 0.00 | 0.00 | 0.00 | 91 | 1015.6 |
| 20260905005638 | 67 | 56 | 8.0 | 10.0 | 0.00 | 0.00 | 0.00 | 91 | 1015.6 |
| 20260905005138 | 67 | 53 | 7.0 | 10.0 | 0.00 | 0.00 | 0.00 | 92 | 1015.6 |
| 20260905004912 | 67 | 63 | 8.0 | 12.0 | 0.00 | 0.00 | 0.00 | 91 | 1015.4 |
| 20260905004637 | 67 | 57 | 7.0 | 12.0 | 0.00 | 0.00 | 0.00 | 91 | 1015.6 |
| 20260905003636 | 67 | 56 | 7.0 | 12.0 | 0.00 | 0.00 | 0.00 | 90 | 1015.5 |
| 20260905003136 | 67 | 41 | 7.0 | 12.0 | 0.00 | 0.00 | 0.00 | 90 | 1015.4 |
| 20260905002636 | 68 | 44 | 8.0 | 13.0 | 0.00 | 0.00 | 0.00 | 91 | 1015.4 |
| 20260905002136 | 68 | 68 | 8.0 | 13.0 | 0.00 | 0.00 | 0.00 | 90 | 1015.5 |
| 20260905001636 | 68 | 57 | 8.0 | 12.0 | 0.00 | 0.00 | 0.00 | 90 | 1015.5 |
| 20260905001136 | 68 | 18 | 8.0 | 11.0 | 0.00 | 0.00 | 0.00 | 90 | 1015.5 |
| 20260905000908 | 68 | 57 | 8.0 | 11.0 | 0.00 | 0.00 | 0.00 | 90 | 1015.5 |
| 20260905000136 | 68 | 56 | 9.0 | 13.0 | 0.00 | 0.00 | 0.00 | 89 | 1015.5 |
| 20260904235906 | 68 | 57 | 9.0 | 13.0 | 0.00 | 0.00 | 0.00 | 89 | 1015.6 |
| 20260904235137 | 68 | 37 | 9.0 | 13.0 | 0.00 | 0.00 | 0.00 | 89 | 1015.6 |
| 20260904234909 | 68 | 75 | 8.0 | 13.0 | 0.00 | 0.00 | 0.00 | 89 | 1015.5 |
| 20260904234138 | 68 | 70 | 8.0 | 14.0 | 0.00 | 0.00 | 0.00 | 89 | 1015.5 |
| 20260904233907 | 69 | 63 | 9.0 | 14.0 | 0.00 | 0.00 | 0.00 | 89 | 1015.5 |
| 20260904233409 | 69 | 55 | 8.0 | 14.0 | 0.00 | 0.00 | 0.00 | 88 | 1015.6 |
| 20260904232901 | 69 | 39 | 8.0 | 12.0 | 0.00 | 0.00 | 0.00 | 90 | 1015.4 |
| 20260904232125 | 69 | 27 | 9.0 | 13.0 | 0.00 | 0.00 | 0.00 | 89 | 1015.4 |
| 20260904231619 | 69 | 46 | 9.0 | 13.0 | 0.00 | 0.00 | 0.00 | 89 | 1015.5 |
| 20260904231113 | 69 | 25 | 9.0 | 12.0 | 0.00 | 0.00 | 0.00 | 88 | 1015.4 |
| 20260904230607 | 69 | 23 | 9.0 | 13.0 | 0.00 | 0.00 | 0.00 | 89 | 1015.4 |
| 20260904230101 | 69 | 11 | 9.0 | 13.0 | 0.00 | 0.00 | 0.00 | 89 | 1015.3 |
| 20260904225557 | 69 | 340 | 9.0 | 12.0 | 0.00 | 0.00 | 0.00 | 87 | 1015.1 |
| 20260904225552 | 69 | 56 | 9.0 | 13.0 | 0.00 | 0.00 | 0.00 | 87 | 1015.0 |
| 20260904224816 | 70 | 63 | 9.0 | 15.0 | 0.00 | 0.00 | 0.00 | 86 | 1015.0 |
| 20260904224037 | 70 | 62 | 10.0 | 16.0 | 0.00 | 0.00 | 0.00 | 86 | 1014.9 |
| 20260904223531 | 70 | 64 | 10.0 | 16.0 | 0.00 | 0.00 | 0.00 | 86 | 1014.8 |
| 20260904223032 | 71 | 56 | 9.0 | 15.0 | 0.00 | 0.00 | 0.00 | 85 | 1014.8 |
| 20260904222519 | 71 | 65 | 8.0 | 15.0 | 0.00 | 0.00 | 0.00 | 86 | 1014.7 |
| 20260904222013 | 71 | 70 | 8.0 | 12.0 | 0.00 | 0.00 | 0.00 | 84 | 1014.7 |
| 20260904221738 | 71 | 65 | 8.0 | 12.0 | 0.00 | 0.00 | 0.00 | 84 | 1014.6 |
| 20260904221001 | 71 | 77 | 8.0 | 13.0 | 0.00 | 0.00 | 0.00 | 85 | 1014.6 |
| 20260904220455 | 71 | 39 | 9.0 | 13.0 | 0.00 | 0.00 | 0.00 | 83 | 1014.6 |
| 20260904215949 | 72 | 43 | 9.0 | 14.0 | 0.00 | 0.00 | 0.00 | 85 | 1014.5 |
| 20260904215443 | 72 | 65 | 9.0 | 14.0 | 0.00 | 0.00 | 0.00 | 83 | 1014.5 |
| 20260904214937 | 73 | 72 | 8.0 | 14.0 | 0.00 | 0.00 | 0.00 | 82 | 1014.6 |
| 20260904214431 | 73 | 69 | 8.0 | 14.0 | 0.00 | 0.00 | 0.00 | 84 | 1014.5 |
| 20260904213925 | 73 | 49 | 8.0 | 14.0 | 0.00 | 0.00 | 0.00 | 81 | 1014.5 |
| 20260904213419 | 74 | 56 | 7.0 | 12.0 | 0.00 | 0.00 | 0.00 | 81 | 1014.4 |
| 20260904212912 | 74 | 30 | 7.0 | 11.0 | 0.00 | 0.00 | 0.00 | 83 | 1014.3 |
| 20260904212407 | 74 | 33 | 8.0 | 13.0 | 0.00 | 0.00 | 0.00 | 81 | 1014.3 |
| 20260904211901 | 74 | 40 | 8.0 | 13.0 | 0.00 | 0.00 | 0.00 | 81 | 1014.3 |
| 20260904211355 | 75 | 43 | 7.0 | 13.0 | 0.00 | 0.00 | 0.00 | 82 | 1014.3 |
| 20260904211120 | 75 | 46 | 7.0 | 13.0 | 0.00 | 0.00 | 0.00 | 81 | 1014.2 |
| 20260904210343 | 75 | 44 | 7.0 | 12.0 | 0.00 | 0.00 | 0.00 | 82 | 1014.1 |
| 20260904205837 | 76 | 48 | 6.0 | 12.0 | 0.00 | 0.00 | 0.00 | 81 | 1014.0 |
| 20260904205330 | 76 | 30 | 6.0 | 11.0 | 0.00 | 0.00 | 0.00 | 79 | 1014.1 |
| 20260904205055 | 76 | 41 | 6.0 | 11.0 | 0.00 | 0.00 | 0.00 | 81 | 1014.1 |
| 20260904204319 | 76 | 63 | 5.0 | 11.0 | 0.00 | 0.00 | 0.00 | 81 | 1014.0 |
| 20260904204043 | 76 | 75 | 5.0 | 10.0 | 0.00 | 0.00 | 0.00 | 79 | 1014.1 |
| 20260904203309 | 76 | 56 | 5.0 | 10.0 | 0.00 | 0.00 | 0.00 | 79 | 1014.1 |
| 20260904203303 | 76 | 32 | 5.0 | 9.0 | 0.00 | 0.00 | 0.00 | 80 | 1014.2 |
| 20260904202254 | 76 | 53 | 4.0 | 9.0 | 0.00 | 0.00 | 0.00 | 79 | 1014.2 |
| 20260904201749 | 75 | 21 | 5.0 | 9.0 | 0.00 | 0.00 | 0.00 | 80 | 1014.2 |
| 20260904201243 | 75 | 62 | 5.0 | 9.0 | 0.00 | 0.00 | 0.00 | 80 | 1014.0 |
| 20260904200737 | 75 | 77 | 5.0 | 9.0 | 0.00 | 0.00 | 0.00 | 81 | 1014.0 |
| 20260904200231 | 75 | 80 | 5.0 | 9.0 | 0.00 | 0.00 | 0.00 | 82 | 1014.0 |
| 20260904195725 | 75 | 47 | 5.0 | 8.0 | 0.00 | 0.00 | 0.00 | 81 | 1014.1 |
| 20260904195226 | 75 | 64 | 4.0 | 8.0 | 0.00 | 0.00 | 0.00 | 83 | 1014.1 |
| 20260904194725 | 75 | 51 | 4.0 | 8.0 | 0.00 | 0.00 | 0.00 | 79 | 1014.1 |
| 20260904194226 | 75 | 50 | 3.0 | 8.0 | 0.00 | 0.00 | 0.00 | 79 | 1014.2 |
| 20260904193727 | 75 | 51 | 5.0 | 9.0 | 0.00 | 0.00 | 0.00 | 81 | 1014.2 |
| 20260904193225 | 74 | 49 | 5.0 | 9.0 | 0.00 | 0.00 | 0.00 | 82 | 1014.0 |
| 20260904192724 | 74 | 27 | 5.0 | 9.0 | 0.00 | 0.00 | 0.00 | 82 | 1014.1 |
| 20260904192224 | 74 | 58 | 5.0 | 9.0 | 0.00 | 0.00 | 0.00 | 81 | 1014.1 |
| 20260904191725 | 74 | 55 | 6.0 | 10.0 | 0.00 | 0.00 | 0.00 | 82 | 1014.0 |
| 20260904191224 | 74 | 50 | 6.0 | 10.0 | 0.00 | 0.00 | 0.00 | 81 | 1014.0 |
| 20260904190724 | 74 | 51 | 5.0 | 9.0 | 0.00 | 0.00 | 0.00 | 80 | 1014.0 |
| 20260904190224 | 74 | 58 | 5.0 | 9.0 | 0.00 | 0.00 | 0.00 | 81 | 1014.0 |
| 20260904185956 | 74 | 353 | 5.0 | 9.0 | 0.00 | 0.00 | 0.00 | 82 | 1014.0 |
| 20260904185225 | 74 | 22 | 5.0 | 9.0 | 0.00 | 0.00 | 0.00 | 82 | 1014.0 |
| 20260904184723 | 74 | 60 | 5.0 | 8.0 | 0.00 | 0.00 | 0.00 | 83 | 1014.0 |
| 20260904184223 | 73 | 10 | 4.0 | 8.0 | 0.00 | 0.00 | 0.00 | 82 | 1014.0 |
| 20260904183955 | 73 | 14 | 4.0 | 9.0 | 0.00 | 0.00 | 0.00 | 82 | 1014.1 |
| 20260904183225 | 73 | 13 | 5.0 | 9.0 | 0.00 | 0.00 | 0.00 | 82 | 1014.0 |
| 20260904182723 | 73 | 65 | 5.0 | 7.0 | 0.00 | 0.00 | 0.00 | 83 | 1014.1 |
| 20260904182222 | 73 | 41 | 5.0 | 8.0 | 0.00 | 0.00 | 0.00 | 84 | 1014.1 |
| 20260904181722 | 73 | 76 | 6.0 | 8.0 | 0.00 | 0.00 | 0.00 | 82 | 1014.1 |
| 20260904181223 | 73 | 359 | 5.0 | 9.0 | 0.00 | 0.00 | 0.00 | 82 | 1014.2 |
| 20260904180722 | 73 | 359 | 4.0 | 9.0 | 0.00 | 0.00 | 0.00 | 83 | 1014.2 |
| 20260904180452 | 72 | 39 | 5.0 | 10.0 | 0.00 | 0.00 | 0.00 | 82 | 1014.1 |
| 20260904175722 | 72 | 43 | 6.0 | 11.0 | 0.00 | 0.00 | 0.00 | 83 | 1014.1 |
| 20260904175223 | 72 | 4 | 5.0 | 11.0 | 0.00 | 0.00 | 0.00 | 85 | 1014.0 |
| 20260904174722 | 72 | 35 | 5.0 | 11.0 | 0.00 | 0.00 | 0.00 | 86 | 1014.1 |
| 20260904174452 | 72 | 44 | 5.0 | 9.0 | 0.00 | 0.00 | 0.00 | 85 | 1014.1 |
| 20260904173956 | 72 | 26 | 5.0 | 9.0 | 0.00 | 0.00 | 0.00 | 85 | 1014.1 |
| 20260904173450 | 71 | 45 | 5.0 | 8.0 | 0.00 | 0.00 | 0.00 | 84 | 1014.2 |
| 20260904172718 | 71 | 50 | 4.0 | 8.0 | 0.00 | 0.00 | 0.00 | 86 | 1014.2 |
| 20260904172452 | 70 | 78 | 4.0 | 8.0 | 0.00 | 0.00 | 0.00 | 85 | 1014.3 |
| 20260904171717 | 70 | 56 | 3.0 | 7.0 | 0.00 | 0.00 | 0.00 | 87 | 1014.3 |
| 20260904171218 | 70 | 53 | 3.0 | 6.0 | 0.00 | 0.00 | 0.00 | 86 | 1014.3 |
| 20260904170948 | 69 | 64 | 4.0 | 6.0 | 0.00 | 0.00 | 0.00 | 86 | 1014.2 |
| 20260904170219 | 69 | 63 | 4.0 | 6.0 | 0.00 | 0.00 | 0.00 | 86 | 1014.2 |
| 20260904165718 | 69 | 71 | 4.0 | 6.0 | 0.00 | 0.00 | 0.00 | 87 | 1014.1 |
| 20260904165450 | 69 | 4 | 5.0 | 8.0 | 0.00 | 0.00 | 0.00 | 87 | 1014.2 |
| 20260904164714 | 69 | 21 | 5.0 | 8.0 | 0.00 | 0.00 | 0.00 | 87 | 1014.1 |
| 20260904164213 | 69 | 48 | 5.0 | 8.0 | 0.00 | 0.00 | 0.00 | 87 | 1014.2 |
| 20260904163713 | 69 | 37 | 4.0 | 7.0 | 0.00 | 0.00 | 0.00 | 88 | 1014.2 |
| 20260904163444 | 68 | 30 | 4.0 | 6.0 | 0.00 | 0.00 | 0.00 | 89 | 1014.2 |
| 20260904162944 | 68 | 41 | 5.0 | 7.0 | 0.00 | 0.00 | 0.00 | 89 | 1014.1 |
| 20260904162213 | 68 | 46 | 5.0 | 7.0 | 0.00 | 0.00 | 0.00 | 88 | 1014.0 |
| 20260904161944 | 68 | 41 | 5.0 | 7.0 | 0.00 | 0.00 | 0.00 | 89 | 1014.0 |
| 20260904161215 | 68 | 39 | 5.0 | 7.0 | 0.00 | 0.00 | 0.00 | 89 | 1014.0 |
| 20260904160715 | 67 | 39 | 5.0 | 8.0 | 0.00 | 0.00 | 0.00 | 90 | 1013.8 |
| 20260904160210 | 67 | 31 | 5.0 | 9.0 | 0.00 | 0.00 | 0.00 | 89 | 1013.7 |
| 20260904155709 | 67 | 346 | 6.0 | 9.0 | 0.00 | 0.00 | 0.00 | 91 | 1013.6 |
| 20260904155209 | 66 | 11 | 6.0 | 8.0 | 0.00 | 0.00 | 0.00 | 90 | 1013.6 |
| 20260904154941 | 66 | 37 | 5.0 | 8.0 | 0.00 | 0.00 | 0.00 | 90 | 1013.5 |
| 20260904154211 | 66 | 46 | 5.0 | 8.0 | 0.00 | 0.00 | 0.00 | 91 | 1013.5 |
| 20260904153709 | 66 | 38 | 6.0 | 9.0 | 0.00 | 0.00 | 0.00 | 91 | 1013.5 |
| 20260904153210 | 65 | 27 | 7.0 | 11.0 | 0.00 | 0.00 | 0.00 | 91 | 1013.6 |
| 20260904152710 | 65 | 58 | 9.0 | 13.0 | 0.00 | 0.00 | 0.00 | 92 | 1013.5 |
| 20260904152211 | 65 | 39 | 9.0 | 13.0 | 0.00 | 0.00 | 0.00 | 92 | 1013.4 |
| 20260904151704 | 65 | 45 | 8.0 | 12.0 | 0.00 | 0.00 | 0.00 | 92 | 1013.4 |
| 20260904151205 | 65 | 37 | 9.0 | 12.0 | 0.00 | 0.00 | 0.00 | 92 | 1013.6 |
| 20260904150703 | 65 | 35 | 9.0 | 16.0 | 0.00 | 0.00 | 0.00 | 93 | 1013.5 |
| 20260904150203 | 65 | 53 | 9.0 | 16.0 | 0.00 | 0.00 | 0.00 | 94 | 1013.4 |
| 20260904145703 | 65 | 355 | 9.0 | 12.0 | 0.00 | 0.00 | 0.00 | 93 | 1013.3 |
| 20260904145203 | 65 | 58 | 8.0 | 12.0 | 0.00 | 0.00 | 0.00 | 93 | 1013.1 |
| 20260904144703 | 65 | 18 | 8.0 | 11.0 | 0.00 | 0.00 | 0.00 | 93 | 1013.2 |
| 20260904144203 | 65 | 36 | 8.0 | 11.0 | 0.00 | 0.00 | 0.00 | 94 | 1013.1 |
| 20260904143701 | 65 | 340 | 7.0 | 10.0 | 0.00 | 0.00 | 0.00 | 94 | 1013.0 |
| 20260904143433 | 65 | 34 | 7.0 | 11.0 | 0.00 | 0.00 | 0.00 | 94 | 1012.9 |
| 20260904142700 | 64 | 46 | 7.0 | 11.0 | 0.00 | 0.00 | 0.00 | 94 | 1012.9 |
| 20260904142159 | 64 | 16 | 7.0 | 10.0 | 0.00 | 0.00 | 0.00 | 94 | 1013.1 |
| 20260904141659 | 64 | 341 | 7.0 | 11.0 | 0.00 | 0.00 | 0.00 | 93 | 1013.1 |
| 20260904141159 | 64 | 28 | 7.0 | 11.0 | 0.00 | 0.00 | 0.00 | 93 | 1013.0 |
| 20260904140701 | 64 | 27 | 7.0 | 11.0 | 0.00 | 0.00 | 0.00 | 93 | 1012.9 |
| 20260904140201 | 65 | 29 | 8.0 | 12.0 | 0.00 | 0.00 | 0.00 | 92 | 1012.9 |
| 20260904135656 | 65 | 49 | 7.0 | 12.0 | 0.00 | 0.00 | 0.00 | 93 | 1012.6 |
| 20260904135156 | 65 | 29 | 6.0 | 10.0 | 0.00 | 0.00 | 0.00 | 92 | 1012.5 |
| 20260904134657 | 65 | 351 | 6.0 | 9.0 | 0.00 | 0.00 | 0.00 | 92 | 1012.4 |
| 20260904134155 | 65 | 51 | 7.0 | 9.0 | 0.00 | 0.00 | 0.00 | 92 | 1012.4 |
| 20260904133654 | 65 | 39 | 6.0 | 9.0 | 0.00 | 0.00 | 0.00 | 93 | 1012.2 |
| 20260904133151 | 65 | 8 | 5.0 | 8.0 | 0.00 | 0.00 | 0.00 | 92 | 1012.2 |
| 20260904132926 | 65 | 61 | 6.0 | 7.0 | 0.00 | 0.00 | 0.00 | 92 | 1011.9 |
| 20260904132649 | 65 | 38 | 5.0 | 7.0 | 0.00 | 0.00 | 0.00 | 93 | 1012.0 |
| 20260904131921 | 64 | 44 | 6.0 | 8.0 | 0.00 | 0.00 | 0.00 | 92 | 1012.0 |
| 20260904131151 | 64 | 61 | 6.0 | 8.0 | 0.00 | 0.00 | 0.00 | 93 | 1011.7 |
| 20260904130650 | 64 | 44 | 5.0 | 8.0 | 0.00 | 0.00 | 0.00 | 93 | 1011.8 |
| 20260904130149 | 64 | 63 | 5.0 | 8.0 | 0.00 | 0.00 | 0.00 | 93 | 1011.7 |
| 20260904125649 | 64 | 31 | 4.0 | 8.0 | 0.00 | 0.00 | 0.00 | 93 | 1011.7 |
| 20260904125149 | 65 | 32 | 4.0 | 7.0 | 0.00 | 0.00 | 0.00 | 93 | 1011.6 |
| 20260904124649 | 65 | 56 | 4.0 | 6.0 | 0.00 | 0.00 | 0.00 | 93 | 1011.3 |
| 20260904124150 | 65 | 56 | 3.0 | 6.0 | 0.00 | 0.00 | 0.00 | 93 | 1011.4 |
| 20260904123644 | 65 | 57 | 2.0 | 5.0 | 0.00 | 0.00 | 0.00 | 92 | 1011.4 |
| 20260904123138 | 65 | 56 | 2.0 | 4.0 | 0.00 | 0.00 | 0.00 | 93 | 1011.4 |
| 20260904122632 | 65 | 56 | 1.0 | 4.0 | 0.00 | 0.00 | 0.00 | 93 | 1011.3 |
| 20260904122126 | 65 | 24 | 2.0 | 4.0 | 0.00 | 0.00 | 0.00 | 93 | 1011.4 |
| 20260904121620 | 65 | 19 | 2.0 | 6.0 | 0.00 | 0.00 | 0.00 | 93 | 1011.5 |
| 20260904121347 | 65 | 347 | 2.0 | 6.0 | 0.00 | 0.00 | 0.00 | 93 | 1011.4 |
| 20260904120839 | 65 | 346 | 0.0 | 3.0 | 0.00 | 0.00 | 0.00 | 94 | 1011.3 |
| 20260904120333 | 64 | 58 | 0.0 | 2.0 | 0.00 | 0.00 | 0.00 | 94 | 1011.3 |
| 20260904115556 | 64 | 60 | 1.0 | 3.0 | 0.00 | 0.00 | 0.00 | 94 | 1011.2 |
| 20260904115049 | 64 | 55 | 2.0 | 3.0 | 0.00 | 0.00 | 0.00 | 94 | 1011.2 |
| 20260904114544 | 64 | 61 | 3.0 | 6.0 | 0.00 | 0.00 | 0.00 | 94 | 1011.0 |
| 20260904114038 | 65 | 69 | 3.0 | 6.0 | 0.00 | 0.00 | 0.00 | 93 | 1011.1 |
| 20260904113532 | 65 | 51 | 3.0 | 6.0 | 0.00 | 0.00 | 0.00 | 93 | 1011.0 |
| 20260904113026 | 65 | 37 | 3.0 | 6.0 | 0.00 | 0.00 | 0.00 | 93 | 1011.0 |
| 20260904112519 | 65 | 32 | 4.0 | 6.0 | 0.00 | 0.00 | 0.00 | 92 | 1011.0 |
| 20260904112014 | 65 | 48 | 3.0 | 5.0 | 0.00 | 0.00 | 0.00 | 92 | 1010.9 |
| 20260904112009 | 65 | 65 | 3.0 | 5.0 | 0.00 | 0.00 | 0.00 | 92 | 1010.9 |
| 20260904111002 | 66 | 69 | 4.0 | 5.0 | 0.00 | 0.00 | 0.00 | 92 | 1010.9 |
| 20260904110728 | 66 | 44 | 4.0 | 6.0 | 0.00 | 0.00 | 0.00 | 92 | 1010.9 |
| 20260904105950 | 66 | 30 | 3.0 | 6.0 | 0.00 | 0.00 | 0.00 | 92 | 1011.0 |
| 20260904105451 | 66 | 29 | 4.0 | 6.0 | 0.00 | 0.00 | 0.00 | 91 | 1010.9 |
| 20260904104950 | 66 | 30 | 3.0 | 6.0 | 0.00 | 0.00 | 0.00 | 91 | 1010.9 |
| 20260904104452 | 66 | 44 | 2.0 | 5.0 | 0.00 | 0.00 | 0.00 | 92 | 1010.8 |